User: anonymous   Login
Location: Plum
(40.5000°N, 79.7500°W)
Time: 17:28:35
(UTC-05:00)
Language:

Cosmos 1825 - Orbit

View from above orbital plane
View from above orbital plane
View from above satellite
View from above satellite

Ground track
Ground track

The orbit data is extracted from the following two-line orbital elements,

1 17566U 87024A   14351.42124705  .00009582  00000-0  52514-3 0  1711
2 17566 082.5069 112.8655 0005291 136.0060 224.1593 15.14064362515456
Epoch (UTC): 17 December 2014 10:06:35
Eccentricity: 0.0005291
inclination: 82.5069°
perigee height: 520 km
apogee height: 527 km
right ascension of ascending node: 112.8655°
argument of perigee: 136.0060°
revolutions per day: 15.14064362
mean anomaly at epoch: 224.1593°
orbit number at epoch: 51545

The dashed part of the orbit path shows where the satellite is in the earth's shadow,  

DLR